Wind_Speed
22 21 20 19 17 17 16 16 15 14 14 13 13 12 12 11 11 10 9 8 8 7 8 12 10 10 9 12 8 5 4 5 13 15 13 14 8 5 6 8 16 15 11 10 6 6 5
26 25 24 23 21 20 18 17 16 16 15 14 13 13 12 12 12 11 10 9 8 8 8 9 12 12 12 13 9 6 9 9 14 18 17 14 7 3 14 17 8 11 8 9 9 8 8
30 29 28 27 26 25 22 21 19 17 16 15 14 13 12 12 12 12 11 10 9 9 9 10 10 15 16 15 7 6 8 9 13 18 18 14 4 17 15 13 4 7 11 15 5 6 9
27 31 32 31 31 29 28 25 23 21 19 17 16 14 13 12 12 11 11 11 11 11 10 10 10 14 14 20 17 13 5 10 14 18 21 10 12 16 17 13 10 5 12 11 12 15 9
34 31 32 35 34 33 32 30 28 26 24 21 19 17 15 14 12 11 10 11 11 11 12 10 10 13 12 18 19 15 13 9 11 18 21 9 16 16 16 11 7 10 2 16 14 12 5
37 38 35 34 37 37 36 34 32 30 29 26 24 21 19 17 15 13 12 11 10 11 12 12 12 10 9 6 12 15 15 11 10 13 14 20 17 15 12 11 19 12 9 18 7 5 13
38 41 41 39 36 38 39 37 36 34 32 30 28 25 23 20 18 17 15 12 12 13 14 14 13 12 4 7 9 15 16 17 14 16 20 15 13 15 13 14 13 16 20 16 9 11 13
43 41 43 43 41 38 39 40 39 37 35 33 30 28 26 23 21 19 17 15 14 15 17 14 19 15 16 14 15 15 16 21 22 21 15 15 23 14 11 14 16 19 17 16 14 14 10
44 45 44 44 43 41 40 40 41 40 38 35 33 30 28 25 23 21 19 16 14 16 20 20 19 19 19 18 17 17 25 23 25 23 19 17 15 11 12 11 14 16 17 11 13 16 14
46 47 46 44 46 42 39 40 41 41 39 38 35 32 29 27 24 24 21 16 14 15 14 24 22 24 18 20 23 18 23 26 23 24 21 23 18 16 21 24 17 14 14 13 15 13 14
43 49 47 40 40 43 39 38 39 40 40 38 37 34 31 30 28 26 18 16 14 11 4 10 15 18 17 26 5 14 19 24 27 25 20 23 20 20 18 17 16 15 14 15 11 15 16
43 46 49 42 38 38 38 36 36 38 39 38 37 35 33 32 28 26 19 14 13 11 9 9 18 19 18 23 21 4 25 29 22 21 22 24 20 19 17 15 16 13 14 16 15 13 12
44 44 48 49 38 39 36 32 32 35 37 37 36 36 34 33 29 24 21 18 13 13 10 14 14 18 20 24 24 17 22 33 34 25 31 26 26 23 22 15 18 13 14 3 4 4 9
41 44 44 50 48 35 36 34 32 31 34 36 36 36 35 32 31 25 23 24 18 12 23 9 17 17 21 24 26 28 22 29 34 26 16 29 25 28 25 22 17 16 13 8 4 4 8
39 40 41 45 50 47 32 38 26 29 30 34 36 36 38 29 30 28 28 35 29 28 10 24 6 16 22 17 22 22 28 31 32 27 32 13 30 15 24 27 29 25 26 15 21 22 11
36 37 37 35 49 54 41 29 32 29 28 32 34 37 36 31 31 32 34 44 38 25 22 12 14 18 18 23 22 29 27 29 29 27 27 31 26 19 15 26 29 26 13 15 10 5 3
32 33 35 37 43 46 37 30 34 30 26 28 32 35 29 32 33 37 46 51 44 32 27 16 19 17 22 21 23 27 21 26 17 30 27 24 27 28 18 9 24 22 19 13 9 7 6
31 31 31 35 36 50 39 46 32 29 27 26 30 32 29 30 36 44 50 49 43 26 27 22 19 23 20 24 21 18 31 25 27 27 29 22 25 27 33 20 14 23 20 20 21 14 16
30 29 29 32 36 44 52 40 31 30 23 25 32 30 24 24 38 45 44 44 39 38 36 27 20 30 20 21 10 16 16 25 25 27 32 31 11 16 13 32 22 22 23 23 19 15 21
29 30 28 29 32 37 43 36 33 31 26 25 31 29 27 29 37 34 42 38 38 38 39 31 21 23 29 21 16 9 10 13 15 24 26 27 22 18 22 20 15 18 21 22 22 20 23
28 27 26 27 29 31 45 46 34 34 30 26 33 28 26 27 33 36 28 27 25 26 35 30 29 26 22 22 21 21 12 9 14 17 22 26 24 22 17 14 21 26 19 22 32 29 27
25 25 25 25 26 30 35 47 37 35 33 31 30 34 37 38 15 30 33 37 29 28 28 33 34 28 23 25 23 23 21 15 14 17 19 22 22 23 25 20 17 20 21 21 17 22 25
24 23 23 23 23 26 31 53 26 38 40 35 28 37 30 37 31 21 38 33 32 25 25 24 31 24 26 22 27 26 27 22 14 17 15 18 19 19 18 20 15 25 25 22 21 19 19
21 21 21 20 21 24 26 40 40 36 36 32 30 24 26 24 35 26 24 37 31 25 21 27 25 28 28 27 28 24 22 19 17 17 21 19 16 12 6 12 7 12 21 22 19 23 23
18 20 19 18 20 23 23 35 39 27 31 33 28 22 33 24 25 27 23 27 30 25 22 25 29 32 35 27 25 23 20 19 20 21 25 22 20 10 7 15 19 18 16 17 10 15 23
17 19 20 17 18 22 24 25 44 25 34 31 24 21 30 24 16 26 23 24 35 33 27 24 31 28 28 28 23 21 16 21 11 13 23 26 25 23 14 5 8 17 25 22 24 23 22
15 16 20 19 19 21 19 21 45 36 33 31 23 19 31 28 23 29 20 22 14 28 29 32 30 27 24 25 24 15 15 11 9 14 13 22 28 29 25 16 18 20 18 15 16 14 22
13 13 14 19 20 20 19 20 28 37 28 34 23 20 21 34 29 21 22 25 19 16 27 26 28 26 25 19 20 14 12 19 20 20 16 18 20 29 29 26 18 13 15 19 13 18 21
13 14 15 20 20 21 21 21 25 30 31 33 25 21 19 24 14 17 19 15 20 17 17 14 18 16 18 22 19 19 10 15 17 18 25 17 19 19 15 18 20 12 16 17 16 16 22
Wind_Direction
276 277 276 278 278 279 279 276 274 271 270 268 267 267 264 262 261 259 258 256 256 247 238 237 232 220 215 187 180 182 205 232 200 193 185 158 170 170 251 295 310 277 270 294 252 316 166
272 270 271 271 271 271 273 273 270 270 269 269 267 267 267 266 265 264 261 257 254 249 241 240 231 222 210 182 225 263 244 247 202 193 178 157 141 214 288 281 292 310 334 300 281 279 215
273 270 266 266 266 266 265 266 267 265 264 263 263 262 261 262 264 267 266 258 252 250 243 240 236 223 216 181 184 240 249 219 202 192 183 139 241 257 261 239 305 284 280 273 295 29 270
272 270 267 263 261 261 262 261 260 261 260 258 258 257 256 257 260 264 267 266 257 251 245 241 242 225 214 200 202 238 220 200 196 191 170 164 266 245 250 235 271 294 285 304 330 286 324
277 270 266 264 260 257 257 258 258 256 256 256 255 254 254 255 258 259 262 264 264 250 246 245 237 232 213 212 220 221 205 220 194 190 172 217 262 238 243 229 274 271 336 347 321 309 314
271 272 269 262 261 257 253 253 253 254 253 252 253 253 252 254 256 257 258 258 260 258 239 238 241 240 231 233 216 212 201 194 218 198 206 223 240 238 230 226 255 239 310 325 314 278 238
274 268 267 267 259 258 254 250 250 250 250 249 250 251 252 251 253 253 255 255 259 253 246 233 228 214 167 194 213 198 192 190 194 219 223 216 241 229 222 227 254 259 289 259 270 299 279
275 272 266 263 263 256 254 252 248 246 247 247 246 247 248 249 250 252 250 250 252 254 250 235 240 228 206 209 204 196 183 197 195 214 219 220 232 235 230 255 268 278 286 268 306 316 258
272 272 270 264 259 258 254 252 249 246 243 243 244 243 243 244 246 249 249 252 252 257 262 234 238 241 230 227 228 215 192 210 202 206 212 219 235 214 233 253 271 275 290 312 298 310 308
270 268 266 266 262 254 253 251 249 245 243 241 239 240 239 239 240 241 243 245 252 263 275 261 241 240 218 227 237 219 204 207 212 214 212 232 247 246 248 247 257 260 283 290 314 308 326
267 266 262 263 262 262 253 251 248 246 242 240 237 235 236 234 235 236 236 238 241 247 332 246 230 228 232 225 193 216 220 203 218 207 218 227 229 242 253 243 254 272 273 290 297 299 317
271 261 255 246 256 259 259 253 249 246 243 240 236 233 231 231 232 233 222 218 216 213 242 215 196 207 198 218 215 172 202 204 232 218 223 236 235 243 253 255 243 269 256 281 285 298 297
271 265 256 245 247 251 260 255 253 247 242 239 236 232 229 226 226 224 218 206 200 217 220 224 203 214 221 213 216 191 203 200 211 216 230 231 239 243 240 256 243 248 245 352 325 282 236
272 266 257 244 235 238 251 249 253 252 242 239 233 231 228 223 224 216 210 199 216 233 204 171 215 217 220 207 226 206 209 208 213 215 231 232 248 230 235 242 241 228 252 192 214 219 274
272 265 258 246 231 240 235 245 245 249 246 239 232 227 226 217 218 208 206 202 222 214 214 210 198 213 217 221 211 218 213 215 217 224 225 230 231 230 228 237 226 229 243 246 241 253 270
272 265 257 253 233 235 232 245 249 244 247 238 232 228 222 215 213 211 207 219 223 214 202 209 246 237 228 213 215 219 211 222 222 232 222 227 260 224 226 237 220 221 245 239 251 159 218
273 269 256 247 237 236 234 237 234 231 241 236 230 229 213 215 213 209 216 220 224 217 200 242 247 236 234 229 223 223 213 223 224 225 228 229 240 241 253 240 200 199 205 224 253 263 180
275 268 260 248 244 232 228 227 223 229 231 230 224 225 213 210 211 216 220 222 223 217 204 224 229 232 239 221 251 245 222 222 227 222 224 214 237 230 245 234 237 231 230 237 243 249 250
274 266 262 246 240 233 229 225 219 220 229 226 217 214 211 209 217 219 225 228 228 219 208 216 233 229 223 231 277 251 258 212 218 207 213 219 221 208 231 243 245 223 223 233 242 256 256
272 266 259 248 243 237 230 223 221 211 218 227 213 207 201 214 218 222 227 229 231 228 219 215 231 243 232 232 219 238 230 225 209 205 212 216 218 217 219 227 228 229 221 224 240 259 267
269 263 261 253 247 235 225 229 212 210 212 221 214 201 203 221 219 216 209 216 221 229 222 211 222 215 230 240 241 234 219 213 212 209 215 216 225 220 223 234 240 250 261 248 241 255 261
268 256 257 253 247 234 233 216 211 216 217 218 221 204 204 213 227 218 204 208 206 219 215 219 220 213 218 226 234 231 225 237 234 222 214 228 239 231 231 228 238 252 250 253 255 249 261
265 251 253 253 245 232 228 226 205 221 216 216 221 216 208 215 207 210 210 209 206 203 215 221 219 207 219 224 215 222 230 242 201 203 200 206 223 215 238 233 250 258 245 260 263 266 285
259 247 250 249 239 231 232 232 225 214 210 221 221 228 211 205 209 216 215 205 204 208 217 224 225 211 211 218 218 229 231 227 223 206 200 196 195 201 223 224 246 251 246 245 261 271 265
265 243 245 245 237 227 226 221 217 211 214 215 221 226 212 200 193 215 204 206 211 224 224 215 208 207 214 214 216 219 225 227 227 206 196 193 194 192 209 228 249 241 225 227 263 293 278
269 249 238 237 230 223 219 228 210 217 206 206 217 224 214 208 191 200 198 206 211 213 211 196 203 201 208 209 202 206 210 226 233 238 227 224 229 237 221 221 226 262 258 243 256 273 270
269 255 237 228 224 213 211 231 223 222 205 202 206 217 199 204 205 207 204 195 213 192 200 202 197 198 197 202 195 188 199 197 208 216 219 227 232 223 225 230 251 251 234 245 261 244 257
267 254 238 221 218 208 204 217 222 211 208 206 201 209 220 218 216 219 201 199 186 177 183 185 190 200 203 202 203 200 212 212 228 217 227 216 212 221 225 228 253 253 238 237 226 233 247
263 252 229 211 208 207 208 206 196 216 208 205 189 198 202 198 181 171 179 175 179 176 171 179 190 203 206 205 205 203 184 202 221 237 223 254 220 222 223 234 235 258 240 229 226 237 247
Height
3148 3148 3147 3147 3147 3148 3149 3149 3149 3150 3150 3150 3149 3149 3149 3149 3149 3149 3150 3150 3149 3150 3150 3150 3151 3152 3153 3155 3155 3156 3158 3160 3163 3166 3170 3173 3176 3178 3178 3180 3182 3182 3184 3184 3181 3183 3182
3142 3143 3144 3144 3144 3144 3144 3145 3146 3146 3147 3147 3147 3147 3147 3146 3147 3147 3147 3147 3147 3148 3148 3148 3149 3149 3151 3154 3154 3155 3158 3159 3161 3165 3169 3172 3174 3178 3179 3179 3180 3182 3182 3180 3179 3180 3180
3136 3137 3138 3139 3140 3139 3140 3140 3142 3143 3144 3144 3145 3145 3145 3145 3145 3145 3144 3145 3145 3146 3146 3146 3146 3147 3148 3153 3151 3154 3156 3158 3160 3164 3168 3171 3175 3176 3176 3176 3177 3178 3179 3177 3178 3179 3180
3130 3130 3131 3133 3134 3135 3135 3136 3137 3138 3139 3140 3141 3142 3143 3143 3142 3142 3142 3142 3142 3143 3143 3143 3144 3144 3146 3148 3150 3151 3153 3156 3158 3162 3166 3168 3170 3171 3173 3175 3175 3176 3176 3176 3177 3177 3178
3121 3123 3123 3125 3126 3128 3129 3130 3131 3132 3134 3136 3137 3138 3139 3139 3140 3140 3140 3139 3140 3140 3140 3141 3142 3142 3144 3145 3147 3151 3153 3155 3158 3161 3164 3167 3167 3169 3172 3174 3175 3175 3175 3176 3177 3176 3176
3113 3114 3115 3116 3117 3120 3121 3123 3125 3126 3128 3130 3132 3133 3134 3135 3136 3137 3137 3138 3137 3137 3138 3139 3139 3142 3142 3144 3145 3147 3150 3154 3157 3159 3162 3164 3165 3167 3170 3172 3171 3173 3174 3176 3177 3172 3172
3105 3105 3106 3107 3108 3110 3112 3115 3117 3119 3121 3124 3126 3128 3130 3131 3132 3133 3135 3136 3137 3137 3134 3136 3135 3137 3139 3140 3142 3145 3148 3152 3156 3158 3158 3161 3163 3163 3166 3167 3168 3169 3172 3171 3172 3170 3171
3094 3094 3096 3098 3099 3100 3102 3105 3107 3110 3113 3116 3119 3121 3124 3126 3128 3129 3130 3131 3132 3133 3131 3132 3132 3133 3134 3137 3140 3142 3147 3150 3151 3153 3156 3160 3158 3161 3163 3165 3167 3168 3168 3167 3167 3166 3166
3082 3083 3085 3086 3089 3091 3093 3094 3098 3101 3104 3108 3111 3114 3117 3120 3122 3124 3125 3128 3128 3128 3127 3128 3128 3129 3132 3135 3136 3139 3143 3145 3148 3151 3152 3155 3155 3158 3161 3163 3164 3164 3165 3164 3164 3164 3163
3072 3072 3073 3075 3076 3080 3083 3085 3087 3091 3095 3099 3103 3107 3111 3114 3119 3118 3120 3124 3125 3125 3124 3121 3122 3123 3127 3130 3131 3135 3137 3143 3145 3147 3151 3153 3154 3156 3159 3161 3162 3162 3163 3163 3162 3161 3161
3061 3061 3062 3064 3066 3069 3072 3074 3077 3080 3084 3089 3095 3099 3103 3107 3109 3112 3120 3120 3121 3123 3123 3117 3115 3119 3122 3123 3130 3129 3133 3138 3139 3143 3150 3147 3150 3152 3154 3157 3158 3160 3161 3160 3159 3159 3159
3047 3049 3050 3055 3056 3059 3062 3065 3067 3070 3074 3078 3085 3090 3094 3099 3103 3107 3112 3115 3118 3123 3112 3110 3109 3113 3117 3118 3124 3128 3130 3135 3138 3142 3143 3145 3148 3149 3151 3153 3155 3156 3157 3157 3157 3158 3158
3035 3035 3038 3041 3047 3050 3053 3057 3059 3060 3065 3069 3074 3080 3085 3090 3097 3102 3105 3110 3115 3108 3107 3106 3107 3110 3113 3115 3119 3123 3127 3129 3132 3137 3137 3141 3142 3145 3148 3149 3151 3153 3154 3155 3158 3158 3156
3022 3022 3024 3028 3036 3039 3044 3049 3051 3053 3055 3059 3064 3070 3075 3082 3087 3095 3099 3104 3100 3094 3099 3102 3103 3106 3107 3111 3114 3119 3122 3124 3128 3132 3135 3137 3138 3139 3143 3145 3147 3149 3151 3152 3157 3157 3151
3010 3010 3012 3015 3022 3026 3033 3038 3042 3045 3047 3051 3055 3060 3066 3077 3079 3085 3091 3090 3082 3087 3094 3099 3100 3102 3104 3107 3112 3114 3116 3119 3122 3127 3130 3131 3132 3134 3137 3139 3143 3144 3145 3150 3149 3149 3150
2999 2999 3001 3004 3009 3016 3024 3029 3034 3038 3040 3043 3046 3050 3059 3068 3072 3077 3080 3074 3076 3083 3092 3096 3097 3098 3099 3103 3106 3108 3111 3113 3117 3121 3125 3126 3128 3129 3132 3132 3135 3137 3143 3145 3145 3148 3149
2989 2990 2991 2994 2998 3004 3012 3019 3024 3029 3033 3035 3040 3042 3055 3059 3064 3066 3063 3062 3071 3078 3087 3091 3091 3093 3096 3098 3102 3103 3106 3110 3112 3115 3119 3123 3125 3126 3128 3128 3129 3135 3137 3139 3141 3142 3143
2981 2981 2982 2985 2988 2994 3003 3010 3014 3020 3025 3028 3032 3036 3045 3050 3054 3052 3052 3057 3067 3073 3081 3083 3085 3087 3089 3092 3093 3097 3099 3102 3103 3109 3111 3116 3118 3120 3120 3126 3129 3129 3131 3135 3136 3138 3137
2972 2972 2973 2976 2980 2984 2991 2999 3005 3012 3017 3021 3024 3031 3037 3042 3042 3044 3049 3054 3060 3068 3073 3076 3080 3082 3086 3087 3091 3091 3093 3092 3097 3102 3104 3108 3111 3114 3118 3121 3123 3124 3128 3131 3132 3133 3132
2964 2964 2965 2968 2971 2975 2982 2988 2996 3003 3010 3016 3020 3025 3030 3032 3034 3040 3046 3049 3053 3060 3066 3070 3075 3079 3081 3082 3086 3087 3088 3089 3093 3096 3100 3104 3105 3108 3111 3115 3120 3122 3124 3126 3127 3126 3128
2956 2957 2958 2960 2964 2968 2974 2979 2989 2995 3002 3009 3012 3016 3022 3023 3025 3033 3039 3045 3050 3052 3058 3064 3066 3071 3076 3080 3080 3082 3086 3087 3089 3092 3096 3099 3100 3105 3109 3113 3116 3116 3119 3121 3121 3123 3123
2948 2950 2952 2953 2956 2961 2966 2973 2982 2987 2995 3001 3006 3010 3014 3016 3023 3026 3033 3036 3041 3048 3052 3055 3060 3066 3071 3074 3077 3079 3079 3083 3083 3088 3092 3095 3097 3101 3103 3107 3109 3110 3112 3114 3117 3119 3119
2941 2943 2945 2947 2950 2955 2960 2964 2972 2981 2987 2991 3000 3005 3009 3012 3017 3020 3022 3031 3037 3044 3048 3052 3057 3062 3066 3070 3070 3072 3074 3076 3079 3082 3088 3091 3094 3097 3098 3103 3106 3104 3104 3108 3110 3113 3113
2935 2938 2940 2942 2945 2949 2954 2957 2965 2974 2982 2991 2995 3001 3005 3008 3013 3015 3020 3027 3033 3038 3044 3048 3051 3054 3059 3062 3066 3069 3071 3074 3077 3080 3084 3087 3090 3094 3096 3101 3101 3099 3100 3105 3106 3107 3105
2930 2933 2935 2938 2941 2945 2949 2956 2963 2969 2978 2984 2991 2996 3001 3004 3008 3011 3016 3021 3026 3029 3036 3037 3043 3046 3049 3057 3062 3066 3069 3071 3073 3076 3080 3084 3087 3090 3093 3095 3093 3092 3096 3100 3101 3101 3096
2926 2928 2931 2934 2937 2940 2945 2949 2955 2965 2972 2979 2986 2991 2996 3001 3004 3006 3009 3013 3019 3023 3030 3031 3038 3042 3048 3053 3057 3058 3063 3066 3071 3073 3077 3081 3084 3087 3090 3091 3089 3086 3092 3096 3094 3092 3089
2922 2923 2925 2929 2932 2936 2940 2944 2952 2961 2968 2976 2982 2987 2992 2996 3000 3003 3005 3009 3011 3018 3022 3027 3033 3038 3043 3046 3051 3055 3059 3064 3067 3068 3073 3074 3076 3077 3082 3086 3082 3082 3086 3087 3088 3089 3083
2919 2920 2921 2924 2928 2932 2937 2942 2948 2957 2965 2972 2980 2985 2990 2993 2998 3000 3002 3006 3009 3010 3015 3022 3030 3034 3039 3044 3048 3052 3055 3059 3062 3064 3067 3069 3072 3073 3078 3080 3077 3076 3080 3082 3080 3079 3082
2916 2917 2919 2921 2925 2929 2934 2939 2945 2954 2961 2970 2975 2982 2987 2993 2996 2997 2999 3002 3006 3011 3015 3020 3026 3030 3035 3040 3045 3049 3052 3054 3057 3059 3063 3067 3067 3070 3071 3072 3071 3071 3073 3074 3075 3075 3075